DL1SEW-6 Weather Reports


time (UTC)temp
C
wind
direction
speed
KPH
gust
KPH
rain 1hr
cm
rain 24hr
cm
rain mn
cm
humidity
%
barometer
mb
20260507161001 13 272 1.6 6.4 0.03 0.30 0.30 66 1014.3
20260507155501 13 304 0.0 8.0 0.03 0.30 0.30 65 1014.3
20260507154002 13 273 1.6 6.4 0.00 0.28 0.28 65 1014.3
20260507152501 13 277 1.6 6.4 0.00 0.28 0.28 64 1014.3
20260507151000 13 307 0.0 6.4 0.00 0.28 0.28 63 1014.3
20260507145501 13 315 3.2 6.4 0.00 0.28 0.28 63 1014.3
20260507144001 13 261 0.0 4.8 0.00 0.28 0.28 63 1014.3
20260507142501 14 302 1.6 6.4 0.00 0.28 0.28 63 1014.3
20260507141000 14 194 1.6 8.0 0.00 0.28 0.28 64 1014.3
20260507135459 14 182 3.2 8.0 0.00 0.28 0.28 64 1014.4
20260507133959 13 184 0.0 6.4 0.00 0.28 0.28 67 1014.3
20260507132459 13 209 0.0 3.2 0.00 0.28 0.28 66 1014.3
20260507131000 13 214 0.0 6.4 0.00 0.28 0.28 67 1014.4
20260507125459 13 178 1.6 3.2 0.00 0.28 0.28 68 1014.3
20260507123959 13 165 1.6 6.4 0.00 0.28 0.28 67 1014.2
20260507122505 13 170 3.2 11.3 0.00 0.28 0.28 69 1014.2
20260507121004 13 180 1.6 6.4 0.00 0.28 0.28 71 1014.1
20260507115503 12 185 3.2 12.9 0.00 0.28 0.28 73 1014.0
20260507114003 12 161 4.8 12.9 0.00 0.28 0.28 73 1014.0
20260507112504 12 161 1.6 6.4 0.00 0.28 0.28 73 1014.1
20260507111004 12 202 1.6 4.8 0.00 0.28 0.28 71 1014.2
20260507105503 12 213 1.6 8.0 0.00 0.28 0.28 68 1014.2
20260507104003 12 257 0.0 3.2 0.00 0.28 0.28 70 1013.9
20260507102503 11 304 0.0 4.8 0.00 0.28 0.28 75 1014.0
20260507101002 12 246 1.6 4.8 0.00 0.28 0.28 76 1014.0
20260507095503 11 286 0.0 3.2 0.00 0.28 0.28 78 1013.9
20260507094002 11 193 0.0 3.2 0.00 0.28 0.28 80 1013.6
20260507092502 11 183 0.0 3.2 0.00 0.28 0.28 82 1013.5
20260507091002 10 157 0.0 3.2 0.00 0.28 0.28 87 1013.3
20260507085501 9 170 0.0 6.4 0.00 0.28 0.28 88 1013.1
20260507084003 9 267 0.0 3.2 0.00 0.28 0.28 89 1013.1
20260507082503 9 265 0.0 3.2 0.00 0.28 0.28 88 1013.1
20260507081000 9 192 0.0 1.6 0.00 0.28 0.28 89 1013.0
20260507075500 9 192 0.0 3.2 0.00 0.28 0.28 89 1012.8
20260507074001 9 191 1.6 4.8 0.00 0.28 0.28 88 1012.7
20260507072502 9 173 1.6 8.0 0.00 0.28 0.28 89 1012.5
20260507071000 8 200 0.0 4.8 0.00 0.28 0.28 90 1012.3
20260507065500 8 182 1.6 6.4 0.03 0.28 0.28 91 1012.2
20260507064000 8 205 1.6 4.8 0.03 0.28 0.28 92 1012.0
20260507062504 8 157 1.6 4.8 0.05 0.28 0.28 91 1011.9
20260507061004 8 156 1.6 8.0 0.05 0.28 0.28 91 1011.9
20260507055505 8 156 1.6 8.0 0.03 0.25 0.25 91 1011.8
20260507054004 8 186 1.6 6.4 0.05 0.25 0.25 92 1011.7
20260507052506 8 150 0.0 4.8 0.05 0.23 0.23 92 1011.5
20260507051003 7 155 0.0 3.2 0.05 0.23 0.23 92 1011.0
20260507045503 7 155 0.0 0.0 0.08 0.23 0.23 91 1010.9
20260507044003 7 155 0.0 3.2 0.08 0.23 0.23 91 1010.7
20260507042503 7 155 0.0 3.2 0.10 0.20 0.20 91 1010.5
20260507041003 7 155 0.0 1.6 0.10 0.18 0.18 90 1010.3
20260507035504 7 155 0.0 1.6 0.10 0.15 0.15 90 1010.2
20260507034004 7 155 0.0 3.2 0.10 0.15 0.15 90 1010.1
20260507032502 7 155 0.0 1.6 0.08 0.10 0.10 89 1009.9
20260507031003 7 155 1.6 4.8 0.08 0.08 0.08 89 1009.9
20260507025502 8 155 0.0 3.2 0.05 0.05 0.05 88 1010.0
20260507024002 8 155 1.6 6.4 0.05 0.05 0.05 88 1009.9
20260507022503 8 155 1.6 6.4 0.03 0.03 0.03 87 1009.8
20260507021002 8 155 1.6 6.4 0.00 0.00 0.00 86 1009.7
20260507015501 8 159 3.2 8.0 0.00 0.00 0.00 87 1009.6
20260507014001 7 163 1.6 9.7 0.00 0.00 0.00 87 1009.3
20260507012501 7 161 1.6 8.0 0.00 0.00 0.00 87 1009.3
20260507011001 7 150 3.2 9.7 0.00 0.00 0.00 88 1009.1
20260507005500 7 165 1.6 8.0 0.00 0.00 0.00 88 1009.1
20260507004001 7 150 0.0 4.8 0.00 0.00 0.00 88 1009.0
20260507002502 7 150 0.0 4.8 0.00 0.00 0.00 88 1009.1
20260507001005 7 163 3.2 6.4 0.00 0.00 0.00 88 1009.0
20260506235506 7 165 1.6 6.4 0.00 0.00 0.00 88 1008.9
20260506234005 7 150 0.0 6.4 0.00 0.00 0.00 89 1008.9
20260506232506 8 160 1.6 6.4 0.00 0.00 0.00 89 1009.1
20260506231004 8 161 1.6 6.4 0.00 0.00 0.00 89 1009.0
20260506225504 8 160 0.0 3.2 0.00 0.00 0.00 89 1009.0
20260506224005 8 160 1.6 3.2 0.00 0.00 0.00 89 1008.8
20260506222505 8 171 1.6 8.0 0.00 0.00 0.00 89 1009.0
20260506221007 8 169 3.2 9.7 0.00 0.00 0.00 89 1009.1
20260506215503 8 177 1.6 11.3 0.03 0.61 0.61 89 1010.0
20260506214003 8 164 1.6 11.3 0.03 0.61 0.61 89 1009.9
20260506212503 8 150 3.2 8.0 0.03 0.61 0.61 89 1009.8
20260506211003 8 159 1.6 8.0 0.05 0.61 0.61 89 1009.7
20260506205503 8 175 3.2 11.3 0.05 0.61 0.61 89 1009.6
20260506204003 8 161 3.2 12.9 0.05 0.61 0.61 88 1009.5
20260506202502 8 167 4.8 14.5 0.05 0.58 0.58 88 1009.5
20260506201002 8 157 3.2 9.7 0.05 0.56 0.56 88 1009.3
20260506195502 8 173 1.6 8.0 0.03 0.53 0.53 88 1009.1
20260506194003 8 163 1.6 8.0 0.03 0.53 0.53 88 1008.7
20260506192504 9 150 3.2 14.5 0.00 0.51 0.51 88 1008.7
20260506191002 9 161 1.6 8.0 0.00 0.51 0.51 89 1008.4
20260506185502 9 161 1.6 6.4 0.00 0.51 0.51 89 1008.2
20260506184002 9 178 1.6 3.2 0.03 0.51 0.51 89 1007.9
20260506182501 9 153 0.0 8.0 0.05 0.51 0.51 89 1007.6
20260506181007 10 165 0.0 3.2 0.05 0.51 0.51 90 1007.5
20260506175506 10 165 0.0 3.2 0.05 0.51 0.51 90 1007.2
20260506174006 10 165 1.6 3.2 0.05 0.51 0.51 89 1007.1
20260506172507 10 165 0.0 3.2 0.08 0.48 0.48 89 1006.7
20260506171005 10 177 1.6 4.8 0.13 0.48 0.48 89 1006.7
20260506165506 10 185 3.2 9.7 0.13 0.46 0.46 88 1006.7
20260506164006 10 159 1.6 6.4 0.13 0.43 0.43 88 1006.8
20260506162506 10 208 1.6 4.8 0.10 0.41 0.41 86 1006.8